CW5385 Weather Reports


Display with metric or nautical units.
time (UTC)temp
F
wind
direction
speed
MPH
gust
MPH
rain 1hr
in
rain 24hr
in
rain mn
in
humidity
%
barometer
mb
20190323050415 55 5 0.0 0.0 0.00 0.00 0.00 100 1019.0
20190323045422 55 5 0.0 0.0 0.00 0.00 0.00 100 1019.0
20190323044426 55 5 0.0 0.0 0.00 0.00 0.00 100 1019.0
20190323043429 55 5 0.0 0.0 0.00 0.00 0.00 100 1019.0
20190323042419 56 5 0.0 0.0 0.00 0.00 0.00 100 1019.0
20190323041422 56 5 0.0 0.0 0.00 0.00 0.00 100 1019.0
20190323040431 56 5 0.0 0.0 0.00 0.00 0.00 100 1019.0
20190323035416 57 5 0.0 0.0 0.00 0.00 0.00 2 1019.0
20190323034414 57 5 0.0 0.0 0.00 0.00 0.00 7 1019.1
20190323033417 57 5 0.0 0.0 0.00 0.00 0.00 12 1019.4
20190323032420 58 5 0.0 0.0 0.00 0.00 0.00 17 1019.4
20190323031424 58 5 0.0 0.0 0.00 0.00 0.00 22 1019.2
20190323030427 59 5 0.0 0.0 0.00 0.00 0.00 28 1019.0
20190323025432 59 5 0.0 0.0 0.00 0.00 0.00 32 1019.0
20190323024428 60 5 0.0 0.0 0.00 0.00 0.00 35 1018.9
20190323023414 60 5 0.0 0.0 0.00 0.00 0.00 38 1018.7
20190323022432 60 5 0.0 0.0 0.00 0.00 0.00 35 1018.7
20190323021415 60 5 0.0 3.0 0.00 0.00 0.00 31 1018.5
20190323020414 60 5 0.0 0.0 0.00 0.00 0.00 32 1018.4
20190323015421 60 5 0.0 0.0 0.00 0.00 0.00 35 1018.4
20190323014425 61 5 0.0 0.0 0.00 0.00 0.00 37 1018.1
20190323013428 61 5 0.0 0.0 0.00 0.00 0.00 41 1018.0
20190323012429 61 5 0.0 0.0 0.00 0.00 0.00 46 1018.0
20190323011429 62 5 0.0 0.0 0.00 0.00 0.00 50 1017.9
20190323010416 62 5 0.0 0.0 0.00 0.00 0.00 54 1017.8
20190323005421 63 5 0.0 0.0 0.00 0.00 0.00 57 1017.8
20190323004424 63 5 0.0 0.0 0.00 0.00 0.00 60 1017.5
20190323003431 64 5 0.0 0.0 0.00 0.00 0.00 61 1017.4
20190323002414 64 5 0.0 0.0 0.00 0.00 0.00 62 1017.4
20190323001414 65 5 0.0 0.0 0.00 0.00 0.00 61 1017.4
20190323000432 66 5 0.0 0.0 0.00 0.00 0.00 60 1017.1
20190322235416 66 5 0.0 0.0 0.00 0.00 0.00 57 1017.1
20190322234422 68 5 0.0 1.0 0.00 0.00 0.00 53 1016.9
20190322233428 69 5 0.0 0.0 0.00 0.00 0.00 49 1016.9
20190322232431 70 5 0.0 1.0 0.00 0.00 0.00 46 1016.9
20190322231418 70 5 0.0 1.0 0.00 0.00 0.00 44 1016.7
20190322230420 71 5 0.0 3.0 0.00 0.00 0.00 41 1016.7
20190322225426 72 5 0.0 3.0 0.00 0.00 0.00 40 1016.7
20190322224430 72 5 1.0 5.0 0.00 0.00 0.00 38 1016.7
20190322223414 72 317 0.0 6.0 0.00 0.00 0.00 37 1016.5
20190322222417 73 263 0.0 4.0 0.00 0.00 0.00 36 1016.5
20190322221415 73 289 0.0 4.0 0.00 0.00 0.00 36 1016.4
20190322220415 74 5 1.0 5.0 0.00 0.00 0.00 35 1016.4
20190322215418 74 293 0.0 6.0 0.00 0.00 0.00 34 1016.4
20190322214418 75 187 1.0 4.0 0.00 0.00 0.00 33 1016.4
20190322213420 75 360 1.0 5.0 0.00 0.00 0.00 34 1016.3
20190322212423 76 283 1.0 6.0 0.00 0.00 0.00 33 1016.3
20190322211420 76 271 1.0 9.0 0.00 0.00 0.00 31 1016.3
20190322210419 76 286 3.0 5.0 0.00 0.00 0.00 32 1016.2
20190322205419 76 302 2.0 9.0 0.00 0.00 0.00 33 1016.2
20190322204425 76 306 2.0 8.0 0.00 0.00 0.00 33 1016.4
20190322203428 76 10 1.0 10.0 0.00 0.00 0.00 33 1016.4
20190322202427 76 271 1.0 7.0 0.00 0.00 0.00 35 1016.4
20190322201416 75 210 0.0 9.0 0.00 0.00 0.00 35 1016.4
20190322200419 76 186 1.0 10.0 0.00 0.00 0.00 34 1016.5
20190322195421 76 281 1.0 8.0 0.00 0.00 0.00 34 1016.5
20190322194417 75 296 3.0 8.0 0.00 0.00 0.00 36 1016.4
20190322193421 75 290 1.0 8.0 0.00 0.00 0.00 35 1016.6
20190322191429 75 293 2.0 7.0 0.00 0.00 0.00 37 1016.8
20190322190416 75 231 0.0 8.0 0.00 0.00 0.00 36 1016.9
20190322185424 75 269 2.0 8.0 0.00 0.00 0.00 38 1016.9
20190322184425 75 284 4.0 8.0 0.00 0.00 0.00 39 1017.0
20190322183423 75 304 3.0 9.0 0.00 0.00 0.00 40 1017.1
20190322182420 74 234 3.0 11.0 0.00 0.00 0.00 43 1017.1
20190322181425 74 327 1.0 8.0 0.00 0.00 0.00 39 1017.4
20190322180427 74 293 4.0 8.0 0.00 0.00 0.00 40 1017.5
20190322175412 74 149 1.0 8.0 0.00 0.00 0.00 39 1017.5
20190322174420 74 205 1.0 6.0 0.00 0.00 0.00 40 1017.8
20190322173425 74 317 1.0 7.0 0.00 0.00 0.00 41 1018.0
20190322172428 73 340 4.0 8.0 0.00 0.00 0.00 41 1018.0
20190322171431 72 302 2.0 6.0 0.00 0.00 0.00 40 1018.1
20190322170414 72 283 2.0 10.0 0.00 0.00 0.00 40 1018.4
20190322165418 72 9 2.0 7.0 0.00 0.00 0.00 40 1018.4
20190322164416 72 220 3.0 9.0 0.00 0.00 0.00 43 1018.5
20190322163418 71 336 3.0 10.0 0.00 0.00 0.00 46 1018.5
20190322162425 71 232 2.0 7.0 0.00 0.00 0.00 45 1018.5
20190322161426 71 333 1.0 7.0 0.00 0.00 0.00 47 1018.5
20190322160412 71 349 4.0 12.0 0.00 0.00 0.00 46 1018.6
20190322155420 70 360 2.0 10.0 0.00 0.00 0.00 47 1018.6
20190322154418 70 38 4.0 8.0 0.00 0.00 0.00 46 1018.8
20190322153425 70 348 2.0 9.0 0.00 0.00 0.00 47 1018.8
20190322152428 69 342 1.0 10.0 0.00 0.00 0.00 46 1018.8
20190322151426 69 335 1.0 7.0 0.00 0.00 0.00 47 1018.7
20190322150416 69 344 2.0 11.0 0.00 0.00 0.00 49 1018.6
20190322145416 68 96 2.0 11.0 0.00 0.00 0.00 52 1018.6
20190322144433 68 74 3.0 10.0 0.00 0.00 0.00 52 1018.5
20190322143414 68 5 2.0 7.0 0.00 0.00 0.00 51 1018.5
20190322142432 67 25 3.0 12.0 0.00 0.00 0.00 53 1018.5
20190322141414 66 265 1.0 11.0 0.00 0.00 0.00 55 1018.5
20190322140417 66 30 3.0 9.0 0.00 0.00 0.00 55 1018.4
20190322135421 65 45 4.0 11.0 0.00 0.00 0.00 56 1018.4
20190322134431 65 323 2.0 9.0 0.00 0.00 0.00 60 1018.3
20190322133427 64 260 3.0 13.0 0.00 0.00 0.00 61 1018.0
20190322132430 64 360 3.0 9.0 0.00 0.00 0.00 62 1018.0
20190322131425 63 319 3.0 8.0 0.00 0.00 0.00 60 1018.0
20190322130429 63 5 3.0 7.0 0.00 0.00 0.00 53 1018.0
20190322125433 62 321 4.0 9.0 0.00 0.00 0.00 49 1018.0
20190322124416 61 9 2.0 6.0 0.00 0.00 0.00 39 1017.8
20190322123416 60 331 2.0 10.0 0.00 0.00 0.00 31 1017.5
20190322122418 59 327 3.0 7.0 0.00 0.00 0.00 24 1017.5
20190322121421 58 333 1.0 4.0 0.00 0.00 0.00 19 1017.4
20190322120420 58 329 1.0 5.0 0.00 0.00 0.00 18 1017.3
20190322115425 58 298 0.0 9.0 0.00 0.00 0.00 18 1017.3
20190322114428 58 321 0.0 7.0 0.00 0.00 0.00 18 1017.1
20190322113430 58 297 0.0 4.0 0.00 0.00 0.00 21 1016.9
20190322112423 58 279 1.0 4.0 0.00 0.00 0.00 23 1016.9
20190322111426 59 321 1.0 8.0 0.00 0.00 0.00 26 1016.7
20190322110412 59 322 2.0 9.0 0.00 0.00 0.00 26 1016.4
20190322105419 59 324 2.0 6.0 0.00 0.00 0.00 27 1016.4
20190322104422 59 348 1.0 6.0 0.00 0.00 0.00 28 1016.4
20190322103428 59 259 0.0 7.0 0.00 0.00 0.00 29 1016.2
20190322102415 59 9 1.0 6.0 0.00 0.00 0.00 30 1016.2
20190322101414 59 280 1.0 6.0 0.00 0.00 0.00 32 1016.1
20190322100415 60 329 1.0 9.0 0.00 0.00 0.00 33 1015.9
20190322095418 60 328 1.0 9.0 0.00 0.00 0.00 35 1015.9
20190322094423 60 327 2.0 9.0 0.00 0.00 0.00 36 1015.8
20190322093427 60 332 0.0 6.0 0.00 0.00 0.00 39 1015.7
20190322092427 60 267 2.0 8.0 0.00 0.00 0.00 40 1015.7
20190322091429 60 298 1.0 10.0 0.00 0.00 0.00 39 1015.5
20190322090414 60 299 1.0 7.0 0.00 0.00 0.00 38 1015.5
20190322085424 59 300 0.0 3.0 0.00 0.00 0.00 37 1015.5
20190322084426 59 306 1.0 5.0 0.00 0.00 0.00 37 1015.4
20190322083428 60 285 0.0 2.0 0.00 0.00 0.00 40 1015.4
20190322082415 60 290 0.0 4.0 0.00 0.00 0.00 45 1015.4
20190322081418 61 287 0.0 4.0 0.00 0.00 0.00 47 1015.4
20190322080419 60 360 0.0 5.0 0.00 0.00 0.00 49 1015.4
20190322075429 61 284 0.0 3.0 0.00 0.00 0.00 51 1015.4
20190322074416 61 290 0.0 5.0 0.00 0.00 0.00 52 1015.5
20190322073414 61 298 0.0 3.0 0.00 0.00 0.00 54 1015.7
20190322072422 61 296 0.0 5.0 0.00 0.00 0.00 56 1015.7
20190322071424 61 284 0.0 3.0 0.00 0.00 0.00 57 1015.8
20190322070424 62 286 0.0 4.0 0.00 0.00 0.00 58 1015.8
20190322065415 62 297 0.0 3.0 0.00 0.00 0.00 59 1015.8
20190322064419 62 5 1.0 5.0 0.00 0.00 0.00 60 1015.9
20190322063420 62 292 1.0 7.0 0.00 0.00 0.00 61 1015.9
20190322062419 62 246 2.0 6.0 0.00 0.00 0.00 61 1015.9
20190322061418 62 316 1.0 9.0 0.00 0.00 0.00 62 1016.0
20190322060428 62 5 3.0 13.0 0.00 0.00 0.00 62 1016.0
20190322055413 62 296 2.0 10.0 0.00 0.00 0.00 61 1016.0
20190322054419 62 296 1.0 8.0 0.00 0.00 0.00 61 1015.9
20190322053419 63 300 2.0 9.0 0.00 0.00 0.00 61 1015.9
20190322052422 63 302 2.0 9.0 0.00 0.00 0.00 62 1015.9
20190322051424 63 288 4.0 8.0 0.00 0.00 0.00 63 1015.9